KD7AWQ Weather Reports


Display with metric or nautical units.
time (UTC)temp
F
wind
direction
speed
MPH
gust
MPH
rain 1hr
in
rain 24hr
in
rain mn
in
humidity
%
barometer
mb
20260505211426 67 251 17.0 21.0 0.00 0.28 0.28 37 1179.7
20260505210922 68 289 14.0 17.0 0.00 0.28 0.28 36 1180.0
20260505210423 68 224 9.0 16.0 0.00 0.28 0.28 39 1180.2
20260505205916 66 293 10.0 15.0 0.00 0.28 0.28 42 1180.2
20260505205415 64 298 10.0 17.0 0.00 0.28 0.28 46 1180.4
20260505204911 65 269 15.0 18.0 0.00 0.28 0.28 44 1180.1
20260505204409 65 277 12.0 16.0 0.00 0.28 0.28 43 1180.3
20260505203906 65 290 11.0 13.0 0.00 0.28 0.28 44 1180.2
20260505203402 66 288 13.0 16.0 0.00 0.28 0.28 42 1180.3
20260505202859 65 274 15.0 20.0 0.00 0.28 0.28 41 1180.4
20260505202355 68 219 16.0 23.0 0.00 0.28 0.28 32 1180.3
20260505201852 66 282 13.0 22.0 0.00 0.28 0.28 40 1180.2
20260505201349 65 234 16.0 27.0 0.00 0.28 0.28 36 1180.3
20260505200847 65 226 18.0 21.0 0.00 0.28 0.28 36 1180.4
20260505200344 65 239 21.0 24.0 0.00 0.28 0.28 37 1180.4
20260505195839 65 243 10.0 20.0 0.00 0.28 0.28 40 1180.3
20260505195337 66 239 11.0 15.0 0.00 0.28 0.28 42 1180.4
20260505194834 64 286 12.0 16.0 0.00 0.28 0.28 44 1180.4
20260505194331 65 294 12.0 18.0 0.00 0.28 0.28 43 1180.4
20260505193826 66 247 14.0 25.0 0.00 0.28 0.28 43 1180.5
20260505193325 66 235 14.0 21.0 0.00 0.28 0.28 44 1180.5
20260505192822 66 234 12.0 16.0 0.00 0.28 0.28 43 1180.7
20260505192320 66 218 12.0 17.0 0.00 0.28 0.28 46 1180.9
20260505191818 65 203 9.0 14.0 0.00 0.28 0.28 51 1181.2
20260505191316 63 266 11.0 16.0 0.00 0.28 0.28 52 1181.0
20260505190812 65 216 13.0 20.0 0.00 0.28 0.28 50 1181.2
20260505190308 64 237 8.0 16.0 0.00 0.28 0.28 51 1181.4
20260505185804 64 192 7.0 13.0 0.00 0.28 0.28 52 1181.6
20260505185300 64 214 12.0 15.0 0.00 0.28 0.28 53 1181.8
20260505184756 64 223 9.0 14.0 0.00 0.28 0.28 54 1181.5
20260505184254 63 250 10.0 15.0 0.00 0.28 0.28 55 1181.6
20260505183751 63 232 7.0 11.0 0.00 0.28 0.28 58 1181.8
20260505183248 64 254 7.0 14.0 0.00 0.28 0.28 55 1181.4
20260505182744 64 199 5.0 10.0 0.00 0.28 0.28 52 1181.4
20260505182241 64 198 2.0 6.0 0.00 0.28 0.28 59 1181.5
20260505181737 64 323 4.0 9.0 0.00 0.28 0.28 55 1181.6
20260505181235 64 285 7.0 10.0 0.00 0.28 0.28 59 1182.0
20260505180731 63 207 5.0 8.0 0.00 0.28 0.28 58 1181.8
20260505180228 62 266 8.0 10.0 0.00 0.28 0.28 61 1181.9
20260505175724 61 304 7.0 10.0 0.00 0.28 0.28 66 1182.0
20260505175221 60 31 1.0 5.0 0.00 0.28 0.28 74 1182.0
20260505174718 60 301 6.0 8.0 0.00 0.28 0.28 62 1181.9
20260505174215 61 266 5.0 6.0 0.00 0.28 0.28 61 1181.9
20260505173711 60 262 9.0 14.0 0.00 0.28 0.28 66 1181.8
20260505173208 61 225 2.0 6.0 0.00 0.28 0.28 62 1182.0
20260505172705 61 327 3.0 6.0 0.00 0.28 0.28 61 1181.6
20260505172202 61 254 9.0 14.0 0.00 0.28 0.28 61 1181.5
20260505171701 62 249 4.0 10.0 0.00 0.28 0.28 61 1181.5
20260505171159 61 265 5.0 8.0 0.00 0.28 0.28 63 1181.9
20260505170655 59 259 8.0 11.0 0.00 0.28 0.28 66 1181.5
20260505170152 59 254 11.0 13.0 0.00 0.28 0.28 67 1181.8
20260505165652 59 226 7.0 9.0 0.00 0.28 0.28 68 1181.5
20260505165148 59 256 7.0 14.0 0.00 0.28 0.28 68 1181.9
20260505164644 58 278 6.0 15.0 0.00 0.28 0.28 71 1181.6
20260505164142 58 280 8.0 11.0 0.00 0.28 0.28 72 1181.9
20260505163640 58 296 9.0 10.0 0.00 0.28 0.28 71 1182.0
20260505163138 58 281 7.0 8.0 0.00 0.28 0.28 76 1181.9
20260505162635 58 244 6.0 9.0 0.00 0.28 0.28 74 1181.8
20260505162132 59 253 7.0 10.0 0.00 0.28 0.28 72 1182.0
20260505161629 59 237 6.0 10.0 0.00 0.28 0.28 71 1181.5
20260505161126 58 229 7.0 9.0 0.00 0.28 0.28 72 1181.8
20260505160624 57 255 7.0 8.0 0.00 0.28 0.28 73 1181.9
20260505160121 57 240 7.0 11.0 0.00 0.28 0.28 73 1181.9
20260505153101 57 230 13.0 14.0 0.00 0.28 0.28 74 1181.8
20260505152557 57 253 9.0 11.0 0.00 0.28 0.28 77 1181.6
20260505152053 57 293 5.0 8.0 0.00 0.28 0.28 78 1182.0
20260505151548 56 219 10.0 13.0 0.00 0.28 0.28 80 1181.6
20260505151046 56 253 7.0 8.0 0.00 0.28 0.28 81 1181.8
20260505150542 56 220 6.0 9.0 0.00 0.28 0.28 81 1181.6
20260505140508 52 103 0.0 1.0 0.00 0.27 0.27 94 1181.6
20260505124921 51 147 3.0 5.0 0.12 0.24 0.24 94 1181.0
20260505124418 51 145 2.0 3.0 0.14 0.23 0.23 94 1180.9
20260505123914 51 159 4.0 3.0 0.12 0.22 0.22 94 1181.0
20260505123411 52 126 1.0 1.0 0.12 0.21 0.21 94 1180.6
20260505122906 52 140 4.0 5.0 0.07 0.20 0.20 94 1181.0
20260505122404 52 145 3.0 6.0 0.05 0.19 0.19 94 1181.1
20260505121900 52 138 4.0 5.0 0.05 0.19 0.19 94 1181.1
20260505121358 52 130 2.0 2.0 0.07 0.18 0.18 94 1181.0
20260505120853 52 74 1.0 1.0 0.12 0.18 0.18 94 1181.0
20260505120350 52 73 1.0 1.0 0.05 0.17 0.17 94 1181.2
20260505115848 52 90 0.0 1.0 0.07 0.16 0.16 94 1181.2
20260505115346 52 91 2.0 3.0 0.05 0.15 0.15 94 1181.4
20260505114844 52 103 1.0 1.0 0.12 0.15 0.15 94 1181.6
20260505114340 52 146 2.0 5.0 0.05 0.13 0.13 94 1181.4
20260505113836 52 108 1.0 3.0 0.05 0.13 0.13 93 1181.2
20260505113333 52 133 1.0 3.0 0.00 0.12 0.12 93 1181.1
20260505112828 52 116 0.0 1.0 0.07 0.12 0.12 93 1181.4
20260505112326 52 110 4.0 7.0 0.00 0.11 0.11 92 1181.2
20260505111822 53 100 3.0 6.0 0.00 0.11 0.11 90 1181.3
20260505111317 53 169 6.0 8.0 0.00 0.11 0.11 84 1181.4
20260505110814 53 248 6.0 8.0 0.00 0.11 0.11 85 1181.1
20260505110311 53 272 5.0 7.0 0.00 0.11 0.11 85 1181.2
20260505101746 53 272 5.0 7.0 0.05 0.10 0.10 88 1181.9
20260505101241 53 262 5.0 8.0 0.07 0.09 0.09 88 1182.4
20260505100738 53 246 6.0 6.0 0.12 0.09 0.09 88 1182.3
20260505100235 53 250 5.0 8.0 0.12 0.08 0.08 88 1182.6
20260505095730 53 250 5.0 7.0 0.12 0.07 0.07 89 1182.6
20260505095228 53 264 6.0 9.0 0.12 0.06 0.06 88 1182.6
20260505094723 53 290 8.0 11.0 0.07 0.05 0.05 87 1182.6
20260505094220 53 248 8.0 13.0 0.05 0.04 0.04 87 1182.6
20260505093716 53 249 6.0 9.0 0.05 0.04 0.04 87 1182.8
20260505093214 53 248 8.0 13.0 0.00 0.03 0.03 85 1182.8
20260505092710 53 268 7.0 11.0 0.07 0.03 0.03 84 1182.8
20260505092210 53 262 11.0 15.0 0.07 0.03 0.03 85 1182.6
20260505091706 53 231 7.0 10.0 0.00 0.02 0.02 86 1182.9
20260505091204 53 236 9.0 14.0 0.00 0.02 0.02 86 1182.9
20260505090701 53 256 10.0 13.0 0.00 0.02 0.02 85 1182.7
20260505090200 53 223 9.0 13.0 0.00 0.02 0.02 85 1182.9
20260505085657 53 231 9.0 15.0 0.05 0.02 0.02 85 1182.9
20260505085155 53 263 13.0 18.0 0.05 0.02 0.02 85 1183.0
20260505084652 53 220 11.0 16.0 0.00 0.01 0.01 84 1183.1
20260505084150 54 236 15.0 16.0 0.00 0.01 0.01 83 1183.0
20260505083647 54 238 11.0 17.0 0.07 0.01 0.01 82 1183.2
20260505083144 54 245 11.0 15.0 0.07 0.01 0.01 82 1183.3
20260505082640 54 263 12.0 15.0 0.00 0.00 0.00 81 1183.5
20260505082137 54 251 9.0 14.0 0.00 0.00 0.00 81 1183.6
20260505081633 55 250 12.0 16.0 0.00 0.00 0.00 79 1183.6
20260505081131 55 258 12.0 17.0 0.00 0.00 0.00 78 1183.5
20260505080627 55 238 11.0 17.0 0.00 0.00 0.00 76 1183.5
20260505080123 55 290 12.0 20.0 0.00 0.00 0.00 73 1183.3
20260505075620 56 246 15.0 21.0 0.00 0.00 0.00 73 1183.3
20260505075116 56 253 14.0 18.0 0.00 0.00 0.00 71 1183.6
20260505074613 56 253 18.0 20.0 0.00 0.00 0.00 70 1183.0
20260505074110 56 264 16.0 18.0 0.00 0.00 0.00 70 1183.2
20260505073608 56 268 12.0 20.0 0.00 0.00 0.00 70 1183.5
20260505073106 56 251 11.0 15.0 0.00 0.00 0.00 70 1183.3
20260505072601 56 253 13.0 17.0 0.00 0.00 0.00 69 1183.5
20260505072058 56 273 14.0 17.0 0.00 0.00 0.00 69 1183.5
20260505071554 56 262 9.0 14.0 0.00 0.00 0.00 69 1183.3
20260505071052 57 253 11.0 14.0 0.00 0.00 0.00 68 1183.6
20260505070549 57 248 8.0 11.0 0.00 0.00 0.00 68 1183.6
20260505070045 58 264 10.0 13.0 0.00 0.02 0.02 65 1183.7
20260505065541 58 256 14.0 17.0 0.00 0.02 0.02 62 1183.5
20260505065038 59 293 12.0 13.0 0.00 0.02 0.02 60 1183.5
20260505064534 59 302 12.0 16.0 0.00 0.02 0.02 61 1183.6
20260505064033 58 255 4.0 7.0 0.00 0.02 0.02 63 1183.6
20260505063530 58 262 7.0 13.0 0.00 0.02 0.02 62 1183.5
20260505063026 58 279 8.0 13.0 0.00 0.02 0.02 65 1183.5
20260505062523 57 277 9.0 15.0 0.00 0.02 0.02 67 1183.2
20260505062020 57 276 9.0 13.0 0.00 0.02 0.02 68 1183.3
20260505061517 57 242 5.0 6.0 0.00 0.02 0.02 71 1183.2
20260505061015 57 238 3.0 6.0 0.00 0.02 0.02 69 1183.5
20260505060512 57 280 5.0 11.0 0.00 0.02 0.02 68 1183.9
20260505060009 58 288 5.0 9.0 0.00 0.02 0.02 68 1183.8
20260505055504 58 279 11.0 14.0 0.00 0.02 0.02 67 1183.9
20260505055001 57 282 11.0 15.0 0.00 0.02 0.02 68 1183.7
20260505054458 57 273 7.0 11.0 0.00 0.02 0.02 69 1183.7
20260505053956 58 295 11.0 14.0 0.00 0.02 0.02 69 1183.8
20260505053453 57 263 10.0 13.0 0.00 0.02 0.02 69 1183.8
20260505052950 58 277 7.0 16.0 0.00 0.02 0.02 69 1183.8
20260505052447 57 281 8.0 9.0 0.00 0.02 0.02 71 1183.5
20260505051944 57 290 9.0 13.0 0.00 0.02 0.02 74 1183.3
20260505051441 57 270 12.0 15.0 0.00 0.02 0.02 75 1183.1
20260505050939 57 261 14.0 16.0 0.00 0.02 0.02 75 1183.0
20260505050437 57 259 13.0 17.0 0.00 0.02 0.02 75 1183.0
20260505041405 57 235 7.0 10.0 0.00 0.02 0.02 74 1183.6
20260505040902 57 238 11.0 15.0 0.00 0.02 0.02 74 1183.7
20260505040359 57 260 14.0 16.0 0.00 0.02 0.02 75 1183.9
20260505035856 56 262 10.0 13.0 0.00 0.02 0.02 75 1183.9
20260505035352 56 250 10.0 14.0 0.00 0.02 0.02 77 1184.1
20260505034849 56 277 7.0 9.0 0.00 0.02 0.02 78 1183.7
20260505034346 56 250 9.0 11.0 0.00 0.02 0.02 77 1183.9
20260505033843 56 239 8.0 11.0 0.00 0.02 0.02 78 1184.1
20260505033339 56 237 10.0 16.0 0.00 0.02 0.02 76 1184.3
20260505032838 55 270 8.0 14.0 0.05 0.02 0.02 77 1184.1
20260505032334 55 235 8.0 10.0 0.05 0.02 0.02 79 1184.3
20260505031831 55 249 10.0 13.0 0.00 0.01 0.01 78 1183.9
20260505031327 55 258 9.0 13.0 0.00 0.01 0.01 79 1183.9
20260505030825 55 237 13.0 16.0 0.00 0.01 0.01 78 1183.9
20260505030321 55 261 12.0 16.0 0.00 0.01 0.01 79 1183.8
20260505025816 55 235 14.0 15.0 0.00 0.01 0.01 77 1183.6
20260505025315 55 289 11.0 18.0 0.00 0.01 0.01 76 1183.7
20260505024813 56 245 13.0 16.0 0.07 0.01 0.01 73 1183.8
20260505024310 56 242 16.0 18.0 0.07 0.01 0.01 70 1183.5
20260505023807 57 265 11.0 17.0 0.00 0.00 0.00 70 1183.7
20260505023304 57 245 10.0 15.0 0.00 0.00 0.00 67 1183.9
20260505022801 58 260 12.0 14.0 0.00 0.00 0.00 63 1183.6
20260505022258 58 246 10.0 15.0 0.00 0.00 0.00 62 1183.7
20260505021755 58 244 12.0 17.0 0.00 0.00 0.00 59 1183.5
20260505021252 59 252 10.0 17.0 0.00 0.00 0.00 57 1183.0
20260505020748 60 251 16.0 21.0 0.00 0.00 0.00 52 1183.1
20260505020243 61 255 12.0 17.0 0.00 0.00 0.00 49 1183.1
20260505015740 61 237 12.0 18.0 0.00 0.00 0.00 45 1182.7
20260505015237 61 249 14.0 20.0 0.00 0.00 0.00 44 1182.8
20260505014734 61 262 14.0 17.0 0.00 0.00 0.00 44 1182.7
20260505014232 62 260 16.0 20.0 0.00 0.00 0.00 43 1182.6
20260505013728 62 247 17.0 22.0 0.00 0.00 0.00 43 1182.6
20260505013225 62 262 15.0 20.0 0.00 0.00 0.00 42 1182.4
20260505012724 62 225 13.0 23.0 0.00 0.00 0.00 42 1182.4
20260505012221 62 235 21.0 24.0 0.00 0.00 0.00 42 1182.3
20260505011716 62 225 14.0 21.0 0.00 0.00 0.00 42 1182.7
20260505011214 62 243 16.0 18.0 0.00 0.00 0.00 42 1182.8
20260505010709 62 228 15.0 18.0 0.00 0.00 0.00 43 1182.8
20260505010206 62 247 14.0 16.0 0.00 0.00 0.00 41 1182.9
20260505005702 62 259 15.0 21.0 0.00 0.00 0.00 40 1183.2
20260505005159 62 264 19.0 27.0 0.00 0.00 0.00 40 1183.1
20260505004656 63 235 21.0 31.0 0.00 0.00 0.00 39 1183.2
20260505004153 63 258 19.0 25.0 0.00 0.00 0.00 37 1183.1
20260505003650 64 299 15.0 23.0 0.00 0.00 0.00 37 1183.1
20260505003147 64 270 20.0 25.0 0.00 0.00 0.00 35 1182.9
20260505002643 64 292 19.0 22.0 0.00 0.00 0.00 34 1183.1
20260505002142 65 277 13.0 22.0 0.00 0.00 0.00 34 1182.9
20260505001638 66 246 20.0 26.0 0.00 0.00 0.00 32 1182.8
20260505001136 66 277 14.0 29.0 0.00 0.00 0.00 31 1183.0
20260505000633 66 289 18.0 26.0 0.00 0.00 0.00 31 1182.9
20260505000131 66 278 22.0 26.0 0.00 0.00 0.00 30 1183.0
20260504235627 67 292 15.0 29.0 0.00 0.00 0.00 30 1183.0
20260504235124 67 288 18.0 23.0 0.00 0.00 0.00 28 1183.0
20260504234621 68 300 17.0 27.0 0.00 0.00 0.00 28 1183.0
20260504234118 68 285 21.0 26.0 0.00 0.00 0.00 27 1182.7
20260504233614 69 351 16.0 22.0 0.00 0.00 0.00 26 1182.4
20260504233110 69 307 24.0 31.0 0.00 0.00 0.00 26 1182.4
20260504232607 69 339 18.0 24.0 0.00 0.00 0.00 26 1182.4
20260504232105 69 311 25.0 26.0 0.00 0.00 0.00 26 1182.3
20260504231601 70 276 14.0 23.0 0.00 0.00 0.00 26 1182.3
20260504231057 70 283 22.0 26.0 0.00 0.00 0.00 27 1182.4
20260504230553 70 320 16.0 20.0 0.00 0.00 0.00 28 1182.4
20260504230053 70 114 15.0 22.0 0.00 0.00 0.00 27 1182.4
20260504225549 70 341 17.0 22.0 0.00 0.00 0.00 27 1182.3
20260504225046 69 237 10.0 13.0 0.00 0.00 0.00 28 1182.8
20260504224543 71 341 20.0 29.0 0.00 0.00 0.00 28 1182.8
20260504224040 72 260 19.0 27.0 0.00 0.00 0.00 24 1183.1
20260504223537 71 289 18.0 21.0 0.00 0.00 0.00 23 1182.8
20260504223033 72 275 19.0 29.0 0.00 0.00 0.00 22 1182.8
20260504222530 72 278 17.0 24.0 0.00 0.00 0.00 22 1182.8
20260504222027 71 291 15.0 25.0 0.00 0.00 0.00 22 1183.0
20260504221524 71 279 28.0 35.0 0.00 0.00 0.00 23 1182.8
20260504221021 72 271 31.0 37.0 0.00 0.00 0.00 23 1182.9
20260504220518 72 289 18.0 22.0 0.00 0.00 0.00 22 1182.9
20260504220015 73 286 21.0 29.0 0.00 0.00 0.00 23 1182.8
20260504215511 73 316 20.0 26.0 0.00 0.00 0.00 22 1182.8
20260504215009 73 310 15.0 16.0 0.00 0.00 0.00 21 1182.7
20260504214504 73 289 23.0 24.0 0.00 0.00 0.00 22 1182.7
20260504214001 74 25 15.0 21.0 0.00 0.00 0.00 20 1182.9
20260504213457 73 271 12.0 14.0 0.00 0.00 0.00 19 1182.8
20260504212955 73 333 19.0 21.0 0.00 0.00 0.00 19 1182.9
20260504212450 74 294 19.0 23.0 0.00 0.00 0.00 19 1182.8
20260504211948 74 322 16.0 18.0 0.00 0.00 0.00 19 1182.4